PLEIADES NEO 4 (49070 NORAD) Tracking and Keplerian Element Data

This shows tracking and keplerian element data for the satellite.

Feedback or suggestion? Click here.




ElementValue
Catalog49070
NamePLEIADES NEO 4
Epoch Orbit1060
Epoch Day300.70768342
Epoch Year2021
RAAN13.771
Inclination97.8947
Eccentricity0.0001472
Argument of Perigee80.5126
Mean Anonmoly279.6269
Mean Motion14.81673177
Decay Rate7.3E-07
L11 49070U 21073E 21300.70768342 .00000073 00000-0 15855-4 0 9994
L22 49070 97.8947 13.7710 0001472 80.5126 279.6269 14.81673177 10604

Live tracking and technical data element details for PLEIADES NEO 4 (NORAD 49070). PLEIADES NEO 4 can be tracked NOW for your location showing map with azimuth and elevation plus other details from your city location.

Track the satellite on the map from your city or location and see movement details for azimuth, elevation, latitude, longitude, range, height, and movement on the map or in text.







IsCatalogInMostPopularTable: catalog: 49070, numindb: 9
Update: records affected: 1



GetName: 49070 PLEIADES NEO 4

Hit Count: updated at: Thu, 28 Oct 2021 12:17:19 GMT